Zurück zum Katalog

COSMOS 1823 DEB

AktivLEO
NORAD 39822·DEBRIS·🇷🇺 Russia

Gestartet Feb 20, 1987 von Plesetsk Cosmodrome

Loading…

Nächste Überflüge (nächste 24 Stunden)

TLE

VeraltetSource: Space-Track

Epoche: Sep 7, 2026, 07:04 UTC

1 39822U 87020EW  26250.29507789  .00000218  00000-0  19047-2 0  9997
2 39822  73.9697 109.6610 0144308  45.9018 315.3792 12.30516545991198

Verfolge COSMOS 1823 DEB in Echtzeit mit AllMySat

Download on the App Store